• In Hungary
  • List of Countries
  • For 7 days
  • Water Temperature
  • Satellite Maps
  • Weather Map
  • News
  • Weather Widgets
  • user-avatar
    Login

    Hourly Weather Sciegnica

    Today, 22 July, Sunday

    Time Temperature Precipitation Wind Pressure Humidity
    00:00 +16°C° 0 mm 2 mps 755 mmHg 88%
    01:00 +16°C° 0 mm 2 mps 755 mmHg 88%
    02:00 +16°C° 0 mm 2 mps 755 mmHg 88%
    03:00 +16°C° 0 mm 2 mps 755 mmHg 89%
    04:00 +16°C° 0 mm 2 mps 755 mmHg 89%
    05:00 +19°C° 0 mm 1 mps 755 mmHg 83%
    06:00 +21°C° 0 mm 1 mps 755 mmHg 77%
    07:00 +23°C° 0 mm 1 mps 755 mmHg 72%
    08:00 +24°C° 0 mm 1 mps 755 mmHg 65%
    09:00 +25°C° 0 mm 1 mps 756 mmHg 58%
    10:00 +26°C° 0 mm 2 mps 756 mmHg 52%
    11:00 +27°C° 0 mm 2 mps 756 mmHg 51%
    12:00 +27°C° 0 mm 2 mps 756 mmHg 49%
    13:00 +27°C° 0 mm 2 mps 756 mmHg 46%
    14:00 +27°C° 0 mm 2 mps 756 mmHg 47%
    15:00 +27°C° 0 mm 3 mps 756 mmHg 49%
    16:00 +26°C° 0 mm 3 mps 756 mmHg 50%
    17:00 +25°C° 0 mm 2 mps 756 mmHg 56%
    18:00 +24°C° 0 mm 2 mps 756 mmHg 62%
    19:00 +23°C° 0 mm 1 mps 756 mmHg 68%
    20:00 +21°C° 0 mm 1 mps 756 mmHg 70%
    21:00 +20°C° 0 mm 1 mps 756 mmHg 72%
    22:00 +19°C° 0 mm 1 mps 756 mmHg 74%
    23:00 +18°C° 0 mm 2 mps 756 mmHg 74%

    Tomorrow, 23 July, Monday

    Time Temperature Precipitation Wind Pressure Humidity
    00:00 +17°C° 0 mm 2 mps 756 mmHg 74%
    01:00 +17°C° 0 mm 2 mps 756 mmHg 74%
    02:00 +17°C° 0 mm 2 mps 756 mmHg 74%
    03:00 +16°C° 0 mm 2 mps 756 mmHg 75%
    04:00 +16°C° 0 mm 2 mps 756 mmHg 75%
    05:00 +18°C° 0 mm 2 mps 756 mmHg 71%
    06:00 +20°C° 0 mm 2 mps 756 mmHg 67%
    07:00 +23°C° 0 mm 2 mps 757 mmHg 63%
    08:00 +24°C° 0 mm 1 mps 757 mmHg 57%
    09:00 +26°C° 0 mm 1 mps 757 mmHg 52%
    10:00 +28°C° 0 mm 1 mps 757 mmHg 46%
    11:00 +28°C° 0 mm 2 mps 757 mmHg 47%
    12:00 +28°C° 0 mm 2 mps 757 mmHg 47%
    13:00 +29°C° 0 mm 2 mps 757 mmHg 47%
    14:00 +28°C° 0.1 mm 3 mps 757 mmHg 52%
    15:00 +27°C° 0.1 mm 3 mps 757 mmHg 56%
    16:00 +27°C° 0.1 mm 3 mps 757 mmHg 61%
    17:00 +26°C° 0 mm 3 mps 757 mmHg 67%
    18:00 +24°C° 0 mm 3 mps 757 mmHg 72%
    19:00 +22°C° 0 mm 3 mps 757 mmHg 78%
    20:00 +21°C° 0 mm 2 mps 757 mmHg 83%
    21:00 +19°C° 0 mm 2 mps 757 mmHg 88%
    22:00 +18°C° 0 mm 2 mps 757 mmHg 92%
    23:00 +18°C° 0 mm 2 mps 757 mmHg 93%

    Day after tomorrow, 24 July, Tuesday

    Time Temperature Precipitation Wind Pressure Humidity
    00:00 +17°C° 0 mm 2 mps 757 mmHg 94%
    01:00 +17°C° 0 mm 2 mps 757 mmHg 95%
    02:00 +17°C° 0 mm 2 mps 757 mmHg 95%
    03:00 +17°C° 0 mm 2 mps 757 mmHg 96%
    04:00 +17°C° 0 mm 2 mps 757 mmHg 96%
    05:00 +18°C° 0 mm 2 mps 757 mmHg 91%
    06:00 +20°C° 0 mm 2 mps 757 mmHg 87%
    07:00 +23°C° 0 mm 2 mps 757 mmHg 82%
    08:00 +24°C° 0 mm 3 mps 757 mmHg 75%
    09:00 +25°C° 0 mm 3 mps 758 mmHg 69%
    10:00 +27°C° 0 mm 3 mps 758 mmHg 62%
    11:00 +27°C° 0 mm 3 mps 758 mmHg 61%
    12:00 +27°C° 0 mm 4 mps 757 mmHg 60%
    13:00 +28°C° 0 mm 4 mps 757 mmHg 59%
    14:00 +27°C° 0 mm 4 mps 757 mmHg 60%
    15:00 +27°C° 0 mm 4 mps 757 mmHg 61%
    16:00 +27°C° 0 mm 4 mps 757 mmHg 62%
    17:00 +26°C° 0 mm 3 mps 757 mmHg 67%
    18:00 +25°C° 0 mm 2 mps 757 mmHg 73%
    19:00 +24°C° 0 mm 2 mps 757 mmHg 78%
    20:00 +21°C° 0 mm 2 mps 757 mmHg 83%
    21:00 +21°C° 0 mm 1 mps 757 mmHg 88%
    22:00 +20°C° 0 mm 1 mps 757 mmHg 93%
    23:00 +19°C° 0 mm 1 mps 757 mmHg 93%

    25 July, Wednesday

    Time Temperature Precipitation Wind Pressure Humidity
    00:00 +19°C° 0 mm 1 mps 757 mmHg 93%
    01:00 +19°C° 0 mm 1 mps 757 mmHg 93%
    02:00 +19°C° 0.1 mm 1 mps 757 mmHg 94%
    03:00 +19°C° 0.1 mm 1 mps 757 mmHg 94%
    04:00 +18°C° 0.1 mm 2 mps 757 mmHg 94%
    05:00 +20°C° 0.3 mm 2 mps 757 mmHg 88%
    06:00 +21°C° 0.3 mm 2 mps 757 mmHg 82%
    07:00 +24°C° 0.3 mm 2 mps 757 mmHg 76%
    08:00 +25°C° 0.2 mm 2 mps 757 mmHg 68%
    09:00 +27°C° 0.2 mm 2 mps 757 mmHg 61%
    10:00 +28°C° 0.2 mm 3 mps 758 mmHg 53%
    11:00 +29°C° 0 mm 3 mps 757 mmHg 50%
    12:00 +29°C° 0 mm 3 mps 757 mmHg 47%
    13:00 +30°C° 0 mm 4 mps 757 mmHg 45%
    14:00 +29°C° 0 mm 4 mps 757 mmHg 47%
    15:00 +29°C° 0 mm 4 mps 757 mmHg 49%
    16:00 +28°C° 0 mm 5 mps 757 mmHg 51%
    17:00 +27°C° 0 mm 4 mps 757 mmHg 58%
    18:00 +25°C° 0 mm 4 mps 757 mmHg 64%
    19:00 +24°C° 0 mm 3 mps 757 mmHg 71%
    20:00 +22°C° 0 mm 3 mps 757 mmHg 77%
    21:00 +20°C° 0 mm 3 mps 757 mmHg 82%
    22:00 +19°C° 0 mm 2 mps 758 mmHg 88%
    23:00 +19°C° 0 mm 2 mps 758 mmHg 89%

    26 July, Thursday

    Time Temperature Precipitation Wind Pressure Humidity
    00:00 +19°C° 0 mm 2 mps 758 mmHg 91%
    01:00 +18°C° 0 mm 2 mps 758 mmHg 92%
    02:00 +18°C° 0 mm 2 mps 758 mmHg 93%
    03:00 +18°C° 0 mm 2 mps 757 mmHg 94%
    04:00 +18°C° 0 mm 3 mps 757 mmHg 95%
    05:00 +20°C° 0 mm 3 mps 758 mmHg 89%
    06:00 +22°C° 0 mm 3 mps 758 mmHg 83%
    07:00 +23°C° 0 mm 4 mps 758 mmHg 77%
    08:00 +26°C° 0 mm 4 mps 758 mmHg 71%
    09:00 +27°C° 0 mm 4 mps 758 mmHg 66%
    10:00 +28°C° 0 mm 4 mps 758 mmHg 60%
    11:00 +29°C° 0 mm 5 mps 758 mmHg 59%
    12:00 +29°C° 0 mm 5 mps 758 mmHg 58%
    13:00 +29°C° 0 mm 5 mps 757 mmHg 57%
    14:00 +29°C° 0 mm 5 mps 757 mmHg 58%
    15:00 +29°C° 0 mm 5 mps 757 mmHg 60%
    16:00 +28°C° 0 mm 5 mps 757 mmHg 62%
    17:00 +27°C° 0 mm 5 mps 757 mmHg 67%
    18:00 +26°C° 0 mm 5 mps 757 mmHg 73%
    19:00 +25°C° 0 mm 4 mps 757 mmHg 79%
    20:00 +23°C° 0 mm 4 mps 758 mmHg 84%
    21:00 +22°C° 0 mm 3 mps 758 mmHg 90%
    22:00 +21°C° 0 mm 3 mps 758 mmHg 96%
    23:00 +20°C° 0 mm 3 mps 758 mmHg 96%

    27 July, Friday

    Time Temperature Precipitation Wind Pressure Humidity
    00:00 +20°C° 0 mm 3 mps 757 mmHg 97%
    01:00 +20°C° 0 mm 3 mps 757 mmHg 97%
    02:00 +20°C° 0 mm 3 mps 757 mmHg 97%
    03:00 +20°C° 0 mm 3 mps 757 mmHg 98%
    04:00 +20°C° 0 mm 3 mps 757 mmHg 98%
    05:00 +21°C° 0 mm 3 mps 757 mmHg 93%
    06:00 +22°C° 0 mm 3 mps 757 mmHg 89%
    07:00 +25°C° 0 mm 3 mps 758 mmHg 85%
    08:00 +26°C° 0 mm 3 mps 758 mmHg 77%
    09:00 +28°C° 0 mm 4 mps 757 mmHg 70%
    10:00 +29°C° 0 mm 4 mps 757 mmHg 63%
    11:00 +30°C° 0.6 mm 4 mps 757 mmHg 62%
    12:00 +30°C° 0.6 mm 4 mps 757 mmHg 62%
    13:00 +30°C° 0.6 mm 4 mps 757 mmHg 61%
    14:00 +30°C° 0.5 mm 4 mps 757 mmHg 62%
    15:00 +30°C° 0.5 mm 4 mps 757 mmHg 64%
    16:00 +29°C° 0.5 mm 4 mps 757 mmHg 65%
    17:00 +28°C° 0 mm 4 mps 757 mmHg 68%
    18:00 +27°C° 0 mm 4 mps 757 mmHg 71%
    19:00 +26°C° 0 mm 4 mps 757 mmHg 75%
    20:00 +25°C° 0.1 mm 4 mps 757 mmHg 79%
    21:00 +24°C° 0.1 mm 3 mps 757 mmHg 83%
    22:00 +21°C° 0.1 mm 3 mps 757 mmHg 88%
    23:00 +21°C° 0 mm 3 mps 757 mmHg 89%
    Show more